Regional Weather Roundup
Issued by NWS

Home | Current Version | Previous Version | Text Only | Print | Product List | Glossary Off
Versions: 1 2 3 4 5 6 7 8 9 10 11 12 13 14 15 16 17 18 19 20 21 22 23 24 25 26 27 28 29 30 31 32 33 34 35 36 37 38 39 40 41 42 43 44 45 46 47 48 49 50

572
ASUS43 KOAX 160710
RWRNE

WEATHER ROUNDUP FOR NEBRASKA
NATIONAL WEATHER SERVICE OMAHA NE
100 AM CST SAT DEC 16 2017

NOTES: SATELLITE DATA IS BEING USED TO AUGMENT CLOUD COVER ABOVE
       12000 FEET.
       "FAIR" INDICATES FEW OR NO CLOUDS BELOW 12,000 FEET WITH NO
       SIGNIFICANT WEATHER AND/OR OBSTRUCTIONS TO VISIBILITY.


NEZ001>004-019>022-054>056-160800-
NEBRASKA PANHANDLE

CITY           SKY/WX    TMP DP  RH WIND       PRES   REMARKS
SCOTTSBLUFF    CLOUDY    37   8  30 N7        29.75F WCI  32
ALLIANCE       CLOUDY    33  13  43 N5        29.74S WCI  29
CHADRON        PTCLDY    30  17  58 W9        29.73F WCI  22
GORDON         FAIR      35  21  57 W5        29.71F WCI  31
KIMBALL        CLOUDY    42   4  20 W12       29.78F
SIDNEY         CLOUDY    31   8  38 NW12      29.77F WCI  22
$$

NEZ057>060-069>072-079>082-160800-
SOUTHWEST NEBRASKA

CITY           SKY/WX    TMP DP  RH WIND       PRES   REMARKS
NORTH PLATTE   CLOUDY    28  21  75 W5        29.74F WCI  23
IMPERIAL       CLOUDY    27  10  49 W7        29.76F WCI  19
LEXINGTON      CLOUDY    26  15  63 NW5       29.74F WCI  20
MCCOOK         CLOUDY    32  12  43 W10       29.75F WCI  24
OGALLALA       CLOUDY    31  17  58 CALM      29.75F
$$

NEZ005>010-023>029-035>040-094-160800-
NORTH CENTRAL NEBRASKA

CITY           SKY/WX    TMP DP  RH WIND       PRES   REMARKS
VALENTINE      PTCLDY    35  24  64 NW3       29.69F
AINSWORTH      PTCLDY    37  26  63 W7        29.69S WCI  31
BROKEN BOW     CLOUDY    36  20  52 CALM      29.71F
O`NEILL        PTCLDY    40  26  58 NW9       29.67F WCI  34
ORD            CLOUDY    26  19  74 W3        29.69F
THEDFORD       CLOUDY    33  19  56 W3        29.71F
$$

NEZ041-046>049-061>064-073>077-083>087-160800-
SOUTH CENTRAL NEBRASKA

CITY           SKY/WX    TMP DP  RH WIND       PRES   REMARKS
GRAND ISLAND   CLOUDY    37  18  46 SW15      29.72F WCI  28
AURORA         CLOUDY    34  20  57 SW12      29.73S WCI  26
HASTINGS       CLOUDY    36  16  44 SW7       29.74F WCI  30
HEBRON         CLOUDY    38  21  50 SW9       29.77F WCI  32
HOLDREGE       CLOUDY    40  15  37 W13       29.74F WCI  32
KEARNEY        CLOUDY    37  13  37 W7        29.74S WCI  32
YORK           CLOUDY    32  23  69 SW10      29.74R WCI  24
$$

NEZ011>018-030>034-042>045-160800-
NORTHEAST NEBRASKA

CITY           SKY/WX    TMP DP  RH WIND       PRES   REMARKS
NORFOLK        CLOUDY    36  22  56 W3        29.67F
ALBION         CLOUDY    37  24  57 NW5       29.69F WCI  34
BLAIR          CLEAR     40  24  53 SW12      29.71S WCI  32
COLUMBUS       CLOUDY    34  22  61 W6        29.71F WCI  29
FREMONT        CLOUDY    38  22  52 SW5       29.71F WCI  34
TEKAMAH        CLEAR     37  21  52 SW10      29.69F WCI  30
WAYNE          CLEAR     32  23  68 S5        29.66F WCI  28
$$

NEZ050>053-065>068-078-088>093-160800-
SOUTHEAST NEBRASKA

CITY           SKY/WX    TMP DP  RH WIND       PRES   REMARKS
LINCOLN        CLEAR     39  21  48 SW9       29.76S WCI  33
OMAHA EPPLEY   CLEAR     33  22  63 SE10      29.74R WCI  25
BEATRICE       CLEAR     40  24  52 SW10      29.77F WCI  34
FALLS CITY     CLEAR     40  24  53 SW16      29.80F WCI  31
NEBRASKA CITY  CLEAR     42  25  50 SW14      29.76S
PLATTSMOUTH    CLEAR     42  24  48 SW15      29.74R
$$

NEZ044-045-051>053-067-160800-
OMAHA AREA

CITY           SKY/WX    TMP DP  RH WIND       PRES   REMARKS
OMAHA EPPLEY   CLEAR     33  22  63 SE10      29.74R WCI  25
BLAIR          CLEAR     40  24  53 SW12      29.71S WCI  32
FREMONT        CLOUDY    38  22  52 SW5       29.71F WCI  34
MILLARD        CLEAR     46  23  41 SW9       29.73S
OFFUTT AFB     CLEAR     29  20  71 SE6       29.73S WCI  22
PLATTSMOUTH    CLEAR     42  24  48 SW15      29.74R
WAHOO          FAIR      42  21  43 SW13      29.71F
$$




USA.gov is the U.S. government's official web portal to all federal, state and local government web resources and services.